Location: Melizzano
(41.1500°N, 14.5000°E)
Time: 08:33:30
(UTC+00:00)

Meteor 1-26 Rocket - Pass Details

Date: 11 May 2021
Orbit: 807 x 928 km, 81.3° (Epoch: 20 June)

Event Time Altitude Azimuth Distance (km) Brightness Sun altitude
Exits shadow 19:37:53 - 188° (S) 3,434 7.0 -14.7°
Reaches altitude 10° 19:40:16 10° 188° (S) 2,511 6.3 -15.1°
Maximum altitude 19:45:59 90° 260° (W) 856 4.2 -15.9°
Drops below altitude 10° 19:51:33 10° 10° (N) 2,448 7.1 -16.6°
Sets 19:53:55 0° 10° (N) 3,372 7.8 -17.0°
